Regional Weather Roundup
Issued by NWS Mobile, AL

Home | Current Version | Previous Version | Text Only | Print | Product List | Glossary On
Versions: 1 2 3 4 5 6 7 8 9 10 11 12 13 14 15 16 17 18 19 20 21 22 23 24 25 26 27 28
000
ASUS44 KMOB 231210
RWRMOB
REGIONAL WEATHER ROUNDUP
NATIONAL WEATHER SERVICE MOBILE AL
700 AM CDT WED APR 23 2014

NOTE: "FAIR" INDICATES FEW OR NO CLOUDS BELOW 12,000 FEET WITH NO
      SIGNIFICANT WEATHER AND/OR OBSTRUCTIONS TO VISIBILITY.

  * THESE STATIONS ARE PART OF THE UNIVERSITY OF SOUTH ALABAMA
    MESONET AND ARE NOT UNDER NWS OR FAA QUALITY CONTROL.

ALZ061>064-231300-
COASTAL ALABAMA

CITY           SKY/WX    TMP DP  RH WIND       PRES   REMARKS
MOBILE REG APT PTCLDY    59  59 100 CALM      29.96R FOG
6HR MIN TEMP:  56; 6HR MAX TEMP:  62;

BROOKLEY FIELD CLEAR     60  60 100 CALM      29.97R FOG
6HR MIN TEMP:  58; 6HR MAX TEMP:  64;

USA CAMPUS*    NOT AVBL
DOG RIVER*     NOT AVBL


CITY           SKY/WX    TMP DP  RH WIND       PRES   REMARKS
MOUNT VERNON*  NOT AVBL
SARALAND*      NOT AVBL
BAY MINETTE*   NOT AVBL
LOXLEY*        NOT AVBL
ROBERTSDALE*   NOT AVBL
FAIRHOPE*      NOT AVBL
ELBERTA*       NOT AVBL
FOLEY*         NOT AVBL
GRAND BAY*       N/A     59  59 100 CALM      29.94R
DAUPHIN ISLND* NOT AVBL
BON SCOUR NWR* NOT AVBL
GULF SHORES    CLEAR     59  59 100 CALM      29.96R FOG

$$

ALZ051>060-231300-
INTERIOR SOUTHWEST AND SOUTH CENTRAL ALABAMA

CITY           SKY/WX    TMP DP  RH WIND       PRES   REMARKS
GREENVILLE     FOG       60  59  96 CALM      29.94R VSB 1/4
6HR MIN TEMP:  56; 6HR MAX TEMP:  60;

EVERGREEN      FOG       60  58  92 CALM      29.97R VSB<1/4
6HR MIN TEMP:  58; 6HR MAX TEMP:  62;

CASTLEBERRY*   NOT AVBL
ATMORE*          N/A     59  59 100 N3        29.97R
DIXIE*         NOT AVBL
ANDALUSIA/OPP  FOG       63  60  90 NW3       29.96R VSB<1/4
6HR MIN TEMP:  63; 6HR MAX TEMP:  67; 6HR PCP:  0.01;

ANDALUSIA*     NOT AVBL
FLORALA APT    LGT RAIN  60  59  96 NW3       29.97R VSB<1/4
6HR MIN TEMP:  59; 6HR MAX TEMP:  63; 6HR PCP: TRACE;

FLORALA*         N/A     61  59  94 NW2       29.93R

$$

FLZ001>006-231300-
WESTERN FLORIDA PANHANDLE

CITY           SKY/WX    TMP DP  RH WIND       PRES   REMARKS
PENSACOLA      CLEAR     64  61  90 N5        29.95R FOG
6HR MIN TEMP:  62; 6HR MAX TEMP:  67;

NAS PENSACOLA  FOG       63  63 100 NW6       29.95R VSB 1
6HR MIN TEMP:  60; 6HR MAX TEMP:  65;

MILTON         FOG       62  60  93 NW3       29.95R VSB 3/4
6HR MIN TEMP:  60; 6HR MAX TEMP:  64;

WHTNG S FIELD  FOG       60  58  92 CALM      29.95R VSB 1/4
6HR MIN TEMP:  58; 6HR MAX TEMP:  65;



CITY           SKY/WX    TMP DP  RH WIND       PRES   REMARKS
WALNUT HILL*   NOT AVBL
JAY*           NOT AVBL
DUKE FIELD     FOG       59  59 100 CALM      29.95R VSB 1/4
CRESTVIEW      FOG       62  61  96 N3        29.96R VSB 1
6HR MIN TEMP:  58; 6HR MAX TEMP:  65;

VALPARAISO     CLEAR     62  62 100 CALM      29.95R FOG
6HR MIN TEMP:  60; 6HR MAX TEMP:  65;

DESTIN         CLEAR     65  62  90 N3        29.94R FOG
6HR MIN TEMP:  64; 6HR MAX TEMP:  68;


$$

MSZ076-079-231300-
INTERIOR SOUTHEAST MISSISSIPPI

CITY           SKY/WX    TMP DP  RH WIND       PRES   REMARKS
LEAKESVILLE*     N/A     55  54  94 CALM      29.97R
AGRICOLA*      NOT AVBL

$$

MARINE OBSERVATIONS

STATION/POSITION TIME  TEMP    WIND        PRES    WAVE
                       AIR SEA DIR/SP/G            HT/PER
                 (UTC) (F)     (DEG/KT/KT) (MB)    (FT/S)
PASCAGOULA       1200   63     350/  4/  5 1013.9R
PETIT BOIS ISLND 1200   66      20/  1/  2 1014.4R
GRAND BAY        1100   62     360/  4     1014.0S
KATRINA CUT      1100   66      30/  6     1014.2R
CEDAR POINT      1100   62     360/  4     1013.9R
E DAUPHIN ISLAND 1100   66      10/  4/  4 1013.2R
MIDDLE BAY LIGHT 1100   65     360/  6     1013.5R
USCG MOBILE BAY  1200   64 68   CALM  /  1 1013.2R
STATE DOCKS      1200   64 65              1013.9R
MEAHER PARK      1100   62        CALM     1014.2R
WEEKS BAY        1100   48                   N/A
FORT MORGAN      1200   66      20/  5/  6 1013.9R
12 S ORANGE BCH  1200   67 68  360/  8/ 10 1014.2R   1
PENSACOLA BAY    1200   65 69  360/  3/  4 1014.4R
64 S DAUPHIN ISL 1150   68 68  340/  4/  6 1014.1R
67 S FORT MORGAN 1100   69                 1013.5R

$$

SELECTED LOCATIONS ACROSS THE REGION

CITY           SKY/WX    TMP DP  RH WIND       PRES   REMARKS
NEW ORLEANS    CLEAR     62  62 100 NW3       29.97R
GULFPORT       CLEAR     64  59  83 CALM      29.95R
PASCAGOULA AP  FOG       60  60 100 CALM      29.96R VSB 1/4
PASCAGOULA*    NOT AVBL
HATTIESBURG    CLEAR     57  55  93 CALM      29.98R FOG
LAUREL         CLEAR     59  54  82 CALM      29.98R
MERIDIAN       CLEAR     53  52  96 N3        29.98R
JACKSON        PTCLDY    52  51  97 CALM      29.99R FOG
MONTGOMERY     FOG       61  59  94 NW6       29.95R VSB 1/4
TROY           FOG       58  56  93 CALM      29.95R VSB<1/4
KINSTON*       NOT AVBL
GENEVA*          N/A     55  54  94 CALM      29.97R
ASHFORD*       NOT AVBL
DOTHAN         FOG       61  61 100 NW6       29.98R VSB 1/4
PANAMA CITY    FOG       65  62  90 CALM      29.93R VSB 1/2

$$




USA.gov is the U.S. government's official web portal to all federal, state and local government web resources and services.